THOR ABLESTAR DEB, 660

Orbit data source: Space-Track

THOR ABLESTAR DEB, 660 is space debris in LEO originally from a launch on Thu, 29 Jun 1961 UTC launched from the Air Force Eastern Test Range (AFETR). Debris objects in space refer to the collection of defunct objects orbiting the Earth. Examples of debris include non-operational satellites, rocket bodies, and fragments generated from explosions, collisions, or faulty payload assembly.

Loading next visibility...
Identifier
660, 1961-015HM
Orbit
LEO
Country
Flag of USUS
Related business
Manufacturer
Unknown
Mission
Spacecraft
Bus & Motor
Unknown
Mass
Unknown
Launch date (UTC)
1961-06-29 (64 years ago)
Launch vehicle
Unknown
Launch site
Air Force Eastern Test Range (AFETR)
Object type
Payload
Rocket body
Debris
Shape & HBR
Unknown shape, 0.1 m
Radar Cross Section
Small (<0.1 m²)

Expand to show TLE details & history
Last TLE update: 2 days ago

TLE from 2 days ago
0 THOR ABLESTAR DEB
1 00660U 61015HM  25304.95047985  .00031030  00000-0  23363-2 0  9992
2 00660  66.4963 132.2741 0017100 325.1549 158.9984 15.02275072350942
Epoch: 2025-10-31T22:48Z
TLE epoch observation values (Epoch: 2025-10-31T22:48:41.459Z)
Latitude
49.43097°
Longitude
-100.72935°
Altitude
577.936 km
Speed
7.571 km/s
True Right ascension
18h 47m 43s
True Declination
49° 15' 24"
Sunlit
Object was in daylight at epoch
Visualization orbit readout
Latitude
Unknown
Longitude
Unknown
Altitude
Unknown
Speed
Unknown
Apparent Right ascension
Unknown
Apparent Declination
Unknown
Sunlit
N/A
Visualization observer readout
Local Sidereal Time
08:17:33
Azimuth
Unknown
Elevation
Unknown
Doppler factor
Unknown
Orbital elements
Apogee altitude
570.089 km
Perigee altitude
546.367 km
Semi-major axis
6,936.365 km
Eccentricity
0.00171
Inclination
66.4963°
RAAN
132.2741°
Arg. of periapsis
325.1549°
True anomaly
159.06849°
Mean anomaly
158.9984°
Eccentric anomaly
159.03346°
Mean motion
3.75704 °/min
Orbital period
95.82 mins
BSTAR
0.0023363

Documentation

Showing up to 5 results
|